| time (UTC) | temp C | wind direction | speed KPH | gust KPH | rain 1hr cm | rain 24hr cm | rain mn cm | humidity % | barometer mb |
| 20260508210027 | 21 | 82 | 3.2 | 4.8 | 0.00 | 0.00 | 0.00 | 48 | 1015.0 |
| 20260508205524 | 21 | 92 | 3.2 | 4.8 | 0.00 | 0.00 | 0.00 | 50 | 1014.8 |
| 20260508205020 | 21 | 82 | 3.2 | 3.2 | 0.00 | 0.00 | 0.00 | 47 | 1014.9 |
| 20260508204517 | 21 | 91 | 3.2 | 3.2 | 0.00 | 0.00 | 0.00 | 47 | 1015.0 |
| 20260508204013 | 21 | 94 | 3.2 | 4.8 | 0.00 | 0.00 | 0.00 | 47 | 1015.0 |
| 20260508203509 | 21 | 97 | 6.4 | 6.4 | 0.00 | 0.00 | 0.00 | 50 | 1015.0 |
| 20260508203005 | 21 | 77 | 4.8 | 4.8 | 0.00 | 0.00 | 0.00 | 48 | 1015.0 |
| 20260508202502 | 21 | 124 | 4.8 | 6.4 | 0.00 | 0.00 | 0.00 | 45 | 1014.9 |
| 20260508201959 | 21 | 39 | 4.8 | 4.8 | 0.00 | 0.00 | 0.00 | 42 | 1015.1 |
| 20260508201456 | 22 | 116 | 0.0 | 4.8 | 0.00 | 0.00 | 0.00 | 42 | 1015.5 |
| 20260508200952 | 22 | 77 | 3.2 | 4.8 | 0.00 | 0.00 | 0.00 | 41 | 1015.2 |
| 20260508200450 | 22 | 123 | 6.4 | 8.0 | 0.00 | 0.00 | 0.00 | 41 | 1015.6 |
| 20260508195944 | 22 | 135 | 3.2 | 4.8 | 0.00 | 0.00 | 0.00 | 43 | 1015.4 |
| 20260508195442 | 22 | 4 | 0.0 | 4.8 | 0.00 | 0.00 | 0.00 | 43 | 1015.7 |
| 20260508194938 | 22 | 104 | 3.2 | 4.8 | 0.00 | 0.00 | 0.00 | 43 | 1015.6 |
| 20260508194435 | 22 | 49 | 3.2 | 4.8 | 0.00 | 0.00 | 0.00 | 43 | 1015.8 |
| 20260508193932 | 23 | 22 | 3.2 | 4.8 | 0.00 | 0.00 | 0.00 | 39 | 1015.9 |
| 20260508193430 | 22 | 92 | 3.2 | 4.8 | 0.00 | 0.00 | 0.00 | 42 | 1015.9 |
| 20260508192925 | 23 | 159 | 4.8 | 6.4 | 0.00 | 0.00 | 0.00 | 38 | 1015.9 |
| 20260508192422 | 23 | 105 | 1.6 | 3.2 | 0.00 | 0.00 | 0.00 | 41 | 1015.9 |
| 20260508191919 | 22 | 76 | 4.8 | 9.7 | 0.00 | 0.00 | 0.00 | 42 | 1016.0 |
| 20260508191417 | 22 | 61 | 3.2 | 6.4 | 0.00 | 0.00 | 0.00 | 40 | 1016.3 |
| 20260508190913 | 22 | 54 | 0.0 | 4.8 | 0.00 | 0.00 | 0.00 | 41 | 1016.5 |
| 20260508190410 | 22 | 294 | 3.2 | 6.4 | 0.00 | 0.00 | 0.00 | 39 | 1016.5 |
| 20260508185906 | 21 | 39 | 3.2 | 6.4 | 0.00 | 0.00 | 0.00 | 44 | 1016.1 |
| 20260508185404 | 21 | 95 | 4.8 | 6.4 | 0.00 | 0.00 | 0.00 | 42 | 1016.4 |
| 20260508184901 | 20 | 35 | 3.2 | 6.4 | 0.00 | 0.00 | 0.00 | 42 | 1016.7 |
| 20260508184359 | 21 | 88 | 4.8 | 6.4 | 0.00 | 0.00 | 0.00 | 46 | 1016.6 |
| 20260508183855 | 21 | 115 | 3.2 | 4.8 | 0.00 | 0.00 | 0.00 | 42 | 1016.6 |
| 20260508183352 | 20 | 76 | 3.2 | 4.8 | 0.00 | 0.00 | 0.00 | 46 | 1016.8 |
| 20260508182847 | 21 | 74 | 4.8 | 4.8 | 0.00 | 0.00 | 0.00 | 40 | 1016.7 |
| 20260508182344 | 21 | 80 | 3.2 | 6.4 | 0.00 | 0.00 | 0.00 | 38 | 1016.5 |
| 20260508181840 | 22 | 91 | 3.2 | 4.8 | 0.00 | 0.00 | 0.00 | 35 | 1016.6 |
| 20260508181337 | 21 | 82 | 3.2 | 4.8 | 0.00 | 0.00 | 0.00 | 40 | 1016.9 |
| 20260508180834 | 21 | 78 | 4.8 | 6.4 | 0.00 | 0.00 | 0.00 | 37 | 1016.9 |
| 20260508180331 | 21 | 84 | 3.2 | 4.8 | 0.00 | 0.00 | 0.00 | 39 | 1017.1 |
| 20260508175827 | 20 | 345 | 3.2 | 3.2 | 0.00 | 0.00 | 0.00 | 40 | 1017.1 |
| 20260508175323 | 20 | 125 | 3.2 | 6.4 | 0.00 | 0.00 | 0.00 | 40 | 1017.2 |
| 20260508174822 | 20 | 158 | 6.4 | 6.4 | 0.00 | 0.00 | 0.00 | 39 | 1017.2 |
| 20260508174319 | 20 | 125 | 3.2 | 4.8 | 0.00 | 0.00 | 0.00 | 40 | 1017.1 |
| 20260508173815 | 20 | 135 | 3.2 | 4.8 | 0.00 | 0.00 | 0.00 | 39 | 1017.2 |
| 20260508173312 | 20 | 342 | 4.8 | 4.8 | 0.00 | 0.00 | 0.00 | 42 | 1017.4 |
| 20260508172808 | 20 | 113 | 3.2 | 4.8 | 0.00 | 0.00 | 0.00 | 43 | 1017.4 |
| 20260508172307 | 20 | 5 | 1.6 | 6.4 | 0.00 | 0.00 | 0.00 | 43 | 1017.5 |
| 20260508171801 | 20 | 140 | 3.2 | 4.8 | 0.00 | 0.00 | 0.00 | 41 | 1017.5 |
| 20260508171258 | 20 | 76 | 3.2 | 8.0 | 0.00 | 0.00 | 0.00 | 42 | 1017.7 |
| 20260508170755 | 20 | 68 | 4.8 | 6.4 | 0.00 | 0.00 | 0.00 | 45 | 1017.7 |
| 20260508170253 | 19 | 66 | 4.8 | 6.4 | 0.00 | 0.00 | 0.00 | 46 | 1017.9 |
| 20260508165749 | 19 | 350 | 3.2 | 6.4 | 0.00 | 0.00 | 0.00 | 45 | 1018.1 |
| 20260508165247 | 19 | 93 | 3.2 | 4.8 | 0.00 | 0.00 | 0.00 | 43 | 1018.2 |
| 20260508164743 | 19 | 57 | 4.8 | 6.4 | 0.00 | 0.00 | 0.00 | 43 | 1018.1 |
| 20260508164239 | 18 | 63 | 3.2 | 4.8 | 0.00 | 0.00 | 0.00 | 47 | 1018.2 |
| 20260508163738 | 18 | 50 | 1.6 | 4.8 | 0.00 | 0.00 | 0.00 | 45 | 1018.2 |
| 20260508163235 | 18 | 99 | 3.2 | 6.4 | 0.00 | 0.00 | 0.00 | 45 | 1018.4 |
| 20260508162730 | 18 | 358 | 3.2 | 4.8 | 0.00 | 0.00 | 0.00 | 42 | 1018.4 |
| 20260508162228 | 18 | 71 | 4.8 | 6.4 | 0.00 | 0.00 | 0.00 | 45 | 1018.3 |
| 20260508161725 | 18 | 55 | 3.2 | 4.8 | 0.00 | 0.00 | 0.00 | 45 | 1018.5 |
| 20260508161222 | 17 | 53 | 1.6 | 4.8 | 0.00 | 0.00 | 0.00 | 43 | 1018.5 |
| 20260508160720 | 17 | 50 | 4.8 | 4.8 | 0.00 | 0.00 | 0.00 | 49 | 1018.7 |
| 20260508160218 | 17 | 108 | 1.6 | 4.8 | 0.00 | 0.00 | 0.00 | 44 | 1018.8 |
| 20260508155714 | 17 | 55 | 3.2 | 6.4 | 0.00 | 0.00 | 0.00 | 50 | 1018.7 |
| 20260508155211 | 17 | 18 | 4.8 | 4.8 | 0.00 | 0.00 | 0.00 | 48 | 1018.7 |
| 20260508154708 | 16 | 56 | 0.0 | 4.8 | 0.00 | 0.00 | 0.00 | 51 | 1019.1 |
| 20260508154205 | 16 | 147 | 6.4 | 8.0 | 0.00 | 0.00 | 0.00 | 47 | 1019.2 |
| 20260508153702 | 16 | 32 | 0.0 | 4.8 | 0.00 | 0.00 | 0.00 | 54 | 1019.0 |
| 20260508153159 | 16 | 113 | 3.2 | 4.8 | 0.00 | 0.00 | 0.00 | 53 | 1019.1 |
| 20260508152655 | 16 | 67 | 3.2 | 4.8 | 0.00 | 0.00 | 0.00 | 53 | 1019.0 |
| 20260508152151 | 16 | 124 | 3.2 | 4.8 | 0.00 | 0.00 | 0.00 | 54 | 1018.9 |
| 20260508151648 | 16 | 285 | 1.6 | 4.8 | 0.00 | 0.00 | 0.00 | 56 | 1019.1 |
| 20260508151144 | 16 | 154 | 1.6 | 4.8 | 0.00 | 0.00 | 0.00 | 55 | 1018.9 |
| 20260508150642 | 15 | 84 | 1.6 | 4.8 | 0.00 | 0.00 | 0.00 | 57 | 1019.0 |
| 20260508150138 | 15 | 97 | 1.6 | 4.8 | 0.00 | 0.00 | 0.00 | 55 | 1019.1 |
| 20260508145634 | 15 | 140 | 3.2 | 6.4 | 0.00 | 0.00 | 0.00 | 56 | 1019.2 |
| 20260508145130 | 15 | 78 | 3.2 | 3.2 | 0.00 | 0.00 | 0.00 | 59 | 1019.2 |
| 20260508144628 | 15 | 16 | 3.2 | 4.8 | 0.00 | 0.00 | 0.00 | 60 | 1019.2 |
| 20260508144126 | 15 | 55 | 3.2 | 4.8 | 0.00 | 0.00 | 0.00 | 60 | 1019.3 |
| 20260508143623 | 15 | 10 | 1.6 | 4.8 | 0.00 | 0.00 | 0.00 | 60 | 1019.2 |
| 20260508143120 | 14 | 344 | 0.0 | 4.8 | 0.00 | 0.00 | 0.00 | 61 | 1019.5 |
| 20260508142616 | 14 | 138 | 4.8 | 4.8 | 0.00 | 0.00 | 0.00 | 61 | 1019.4 |
| 20260508142113 | 14 | 64 | 3.2 | 4.8 | 0.00 | 0.00 | 0.00 | 62 | 1019.3 |
| 20260508141610 | 13 | 79 | 3.2 | 6.4 | 0.00 | 0.00 | 0.00 | 59 | 1019.4 |
| 20260508141107 | 13 | 68 | 3.2 | 3.2 | 0.00 | 0.00 | 0.00 | 61 | 1019.4 |
| 20260508140604 | 13 | 57 | 6.4 | 6.4 | 0.00 | 0.00 | 0.00 | 61 | 1019.4 |
| 20260508140101 | 13 | 52 | 1.6 | 3.2 | 0.00 | 0.00 | 0.00 | 58 | 1019.5 |
| 20260508135556 | 13 | 57 | 4.8 | 4.8 | 0.00 | 0.00 | 0.00 | 61 | 1019.4 |
| 20260508135053 | 12 | 43 | 3.2 | 4.8 | 0.00 | 0.00 | 0.00 | 71 | 1019.4 |
| 20260508134550 | 12 | 51 | 3.2 | 4.8 | 0.00 | 0.00 | 0.00 | 67 | 1019.3 |
| 20260508134047 | 12 | 68 | 3.2 | 3.2 | 0.00 | 0.00 | 0.00 | 67 | 1019.3 |
| 20260508133543 | 12 | 68 | 3.2 | 4.8 | 0.00 | 0.00 | 0.00 | 69 | 1019.2 |
| 20260508133041 | 12 | 66 | 3.2 | 3.2 | 0.00 | 0.00 | 0.00 | 68 | 1019.3 |
| 20260508132539 | 12 | 87 | 3.2 | 4.8 | 0.00 | 0.00 | 0.00 | 69 | 1019.6 |
| 20260508132035 | 11 | 73 | 3.2 | 4.8 | 0.00 | 0.00 | 0.00 | 75 | 1019.5 |
| 20260508131530 | 11 | 81 | 3.2 | 3.2 | 0.00 | 0.00 | 0.00 | 75 | 1019.4 |
| 20260508131027 | 11 | 83 | 3.2 | 4.8 | 0.00 | 0.00 | 0.00 | 76 | 1019.3 |
| 20260508130525 | 10 | 78 | 3.2 | 3.2 | 0.00 | 0.00 | 0.00 | 77 | 1019.3 |
| 20260508130020 | 10 | 66 | 3.2 | 4.8 | 0.00 | 0.00 | 0.00 | 78 | 1019.2 |
| 20260508125516 | 10 | 75 | 1.6 | 3.2 | 0.00 | 0.00 | 0.00 | 81 | 1019.2 |
| 20260508125015 | 10 | 82 | 3.2 | 3.2 | 0.00 | 0.00 | 0.00 | 83 | 1019.2 |
| 20260508124512 | 10 | 78 | 3.2 | 3.2 | 0.00 | 0.00 | 0.00 | 83 | 1019.0 |
| 20260508124009 | 9 | 94 | 1.6 | 3.2 | 0.00 | 0.00 | 0.00 | 83 | 1019.2 |
| 20260508123508 | 9 | 95 | 3.2 | 3.2 | 0.00 | 0.00 | 0.00 | 84 | 1019.0 |
| 20260508123004 | 8 | 84 | 3.2 | 3.2 | 0.00 | 0.00 | 0.00 | 84 | 1019.1 |
| 20260508122501 | 8 | 78 | 3.2 | 3.2 | 0.00 | 0.00 | 0.00 | 85 | 1018.9 |
| 20260508121958 | 8 | 78 | 3.2 | 3.2 | 0.00 | 0.00 | 0.00 | 85 | 1019.1 |
| 20260508121456 | 8 | 78 | 3.2 | 3.2 | 0.00 | 0.00 | 0.00 | 88 | 1019.1 |
| 20260508120953 | 7 | 67 | 3.2 | 3.2 | 0.00 | 0.00 | 0.00 | 91 | 1019.0 |
| 20260508120451 | 7 | 60 | 3.2 | 3.2 | 0.00 | 0.00 | 0.00 | 91 | 1019.0 |
| 20260508115949 | 7 | 76 | 3.2 | 3.2 | 0.00 | 0.00 | 0.00 | 92 | 1018.8 |
| 20260508115446 | 7 | 62 | 3.2 | 3.2 | 0.00 | 0.00 | 0.00 | 93 | 1018.8 |
| 20260508114943 | 7 | 93 | 3.2 | 3.2 | 0.00 | 0.00 | 0.00 | 94 | 1018.8 |
| 20260508114440 | 6 | 13 | 3.2 | 3.2 | 0.00 | 0.00 | 0.00 | 94 | 1018.7 |
| 20260508113936 | 6 | 15 | 1.6 | 3.2 | 0.00 | 0.00 | 0.00 | 93 | 1018.6 |
| 20260508113434 | 6 | 81 | 1.6 | 3.2 | 0.00 | 0.00 | 0.00 | 93 | 1018.7 |
| 20260508112931 | 6 | 72 | 1.6 | 3.2 | 0.00 | 0.00 | 0.00 | 93 | 1018.5 |
| 20260508112428 | 6 | 72 | 1.6 | 3.2 | 0.00 | 0.00 | 0.00 | 93 | 1018.4 |
| 20260508111924 | 6 | 80 | 1.6 | 3.2 | 0.00 | 0.00 | 0.00 | 93 | 1018.4 |
| 20260508111421 | 6 | 86 | 3.2 | 3.2 | 0.00 | 0.00 | 0.00 | 93 | 1018.2 |
| 20260508110918 | 6 | 80 | 3.2 | 3.2 | 0.00 | 0.00 | 0.00 | 92 | 1018.0 |
| 20260508110416 | 6 | 31 | 3.2 | 4.8 | 0.00 | 0.00 | 0.00 | 92 | 1018.0 |
| 20260508105915 | 6 | 54 | 3.2 | 3.2 | 0.00 | 0.00 | 0.00 | 92 | 1018.0 |
| 20260508105412 | 7 | 31 | 3.2 | 3.2 | 0.00 | 0.00 | 0.00 | 91 | 1017.9 |
| 20260508104909 | 7 | 58 | 3.2 | 3.2 | 0.00 | 0.00 | 0.00 | 91 | 1018.2 |
| 20260508104407 | 7 | 31 | 0.0 | 3.2 | 0.00 | 0.00 | 0.00 | 90 | 1017.9 |
| 20260508103904 | 7 | 80 | 0.0 | 3.2 | 0.00 | 0.00 | 0.00 | 90 | 1017.7 |
| 20260508103400 | 7 | 112 | 3.2 | 3.2 | 0.00 | 0.00 | 0.00 | 90 | 1017.5 |
| 20260508102858 | 7 | 64 | 1.6 | 3.2 | 0.00 | 0.00 | 0.00 | 89 | 1017.6 |
| 20260508102356 | 7 | 75 | 1.6 | 1.6 | 0.00 | 0.00 | 0.00 | 88 | 1017.3 |
| 20260508101853 | 7 | 49 | 3.2 | 3.2 | 0.00 | 0.00 | 0.00 | 87 | 1017.2 |
| 20260508101350 | 8 | 0 | 0.0 | 3.2 | 0.00 | 0.00 | 0.00 | 85 | 1017.2 |
| 20260508100848 | 8 | 60 | 3.2 | 4.8 | 0.00 | 0.00 | 0.00 | 85 | 1017.2 |
| 20260508100347 | 8 | 89 | 3.2 | 4.8 | 0.00 | 0.00 | 0.00 | 83 | 1017.0 |
| 20260508095841 | 8 | 67 | 1.6 | 3.2 | 0.00 | 0.00 | 0.00 | 82 | 1016.9 |
| 20260508095340 | 9 | 112 | 3.2 | 4.8 | 0.00 | 0.00 | 0.00 | 81 | 1016.9 |
| 20260508094836 | 9 | 122 | 3.2 | 3.2 | 0.00 | 0.00 | 0.00 | 79 | 1016.8 |
| 20260508094333 | 10 | 19 | 3.2 | 3.2 | 0.00 | 0.00 | 0.00 | 78 | 1016.8 |
| 20260508093830 | 10 | 88 | 3.2 | 4.8 | 0.00 | 0.00 | 0.00 | 76 | 1017.0 |
| 20260508093327 | 10 | 37 | 1.6 | 3.2 | 0.00 | 0.00 | 0.00 | 74 | 1016.9 |
| 20260508092825 | 11 | 101 | 3.2 | 4.8 | 0.00 | 0.00 | 0.00 | 73 | 1016.7 |
| 20260508092323 | 11 | 87 | 3.2 | 3.2 | 0.00 | 0.00 | 0.00 | 66 | 1016.8 |
| 20260508091821 | 11 | 42 | 3.2 | 4.8 | 0.00 | 0.00 | 0.00 | 70 | 1016.9 |
| 20260508091317 | 11 | 338 | 4.8 | 4.8 | 0.00 | 0.00 | 0.00 | 62 | 1016.8 |
| 20260508090815 | 11 | 61 | 3.2 | 4.8 | 0.00 | 0.00 | 0.00 | 69 | 1016.7 |
| 20260508090313 | 11 | 59 | 3.2 | 4.8 | 0.00 | 0.00 | 0.00 | 71 | 1016.7 |
| 20260508085808 | 11 | 46 | 3.2 | 4.8 | 0.00 | 0.00 | 0.00 | 65 | 1016.9 |
| 20260508085307 | 11 | 18 | 3.2 | 4.8 | 0.00 | 0.00 | 0.00 | 65 | 1016.7 |
| 20260508084801 | 12 | 21 | 3.2 | 6.4 | 0.00 | 0.00 | 0.00 | 66 | 1016.8 |
| 20260508084259 | 12 | 11 | 3.2 | 6.4 | 0.00 | 0.00 | 0.00 | 65 | 1016.6 |
| 20260508083756 | 12 | 24 | 3.2 | 4.8 | 0.00 | 0.00 | 0.00 | 66 | 1016.4 |
| 20260508083254 | 12 | 33 | 4.8 | 4.8 | 0.00 | 0.00 | 0.00 | 66 | 1016.5 |
| 20260508082753 | 12 | 16 | 3.2 | 4.8 | 0.00 | 0.00 | 0.00 | 66 | 1016.5 |
| 20260508082251 | 12 | 7 | 3.2 | 4.8 | 0.00 | 0.00 | 0.00 | 67 | 1016.6 |
| 20260508081748 | 12 | 52 | 3.2 | 6.4 | 0.00 | 0.00 | 0.00 | 64 | 1016.5 |
| 20260508081245 | 12 | 25 | 4.8 | 6.4 | 0.00 | 0.00 | 0.00 | 65 | 1016.4 |
| 20260508080742 | 12 | 34 | 4.8 | 6.4 | 0.00 | 0.00 | 0.00 | 68 | 1016.4 |
| 20260508080240 | 12 | 29 | 4.8 | 6.4 | 0.00 | 0.00 | 0.00 | 66 | 1016.3 |
| 20260508075736 | 12 | 16 | 4.8 | 6.4 | 0.00 | 0.00 | 0.00 | 66 | 1016.2 |
| 20260508075233 | 12 | 33 | 4.8 | 8.0 | 0.00 | 0.00 | 0.00 | 65 | 1016.3 |
| 20260508074731 | 12 | 2 | 6.4 | 9.7 | 0.00 | 0.00 | 0.00 | 66 | 1016.2 |
| 20260508074229 | 12 | 40 | 6.4 | 14.5 | 0.00 | 0.00 | 0.00 | 66 | 1016.3 |
| 20260508073725 | 12 | 334 | 8.0 | 9.7 | 0.00 | 0.00 | 0.00 | 68 | 1016.2 |
| 20260508073223 | 12 | 354 | 6.4 | 8.0 | 0.00 | 0.00 | 0.00 | 66 | 1016.1 |
| 20260508072719 | 12 | 340 | 0.0 | 9.7 | 0.00 | 0.00 | 0.00 | 67 | 1016.1 |
| 20260508072216 | 12 | 350 | 4.8 | 9.7 | 0.00 | 0.00 | 0.00 | 67 | 1015.9 |
| 20260508071713 | 12 | 335 | 1.6 | 8.0 | 0.00 | 0.00 | 0.00 | 68 | 1015.8 |
| 20260508071212 | 12 | 0 | 4.8 | 8.0 | 0.00 | 0.00 | 0.00 | 67 | 1015.8 |
| 20260508070708 | 12 | 10 | 3.2 | 8.0 | 0.00 | 0.00 | 0.00 | 66 | 1016.0 |
| 20260508070207 | 12 | 321 | 8.0 | 11.3 | 0.00 | 0.00 | 0.00 | 66 | 1015.7 |
| 20260508065704 | 12 | 335 | 4.8 | 6.4 | 0.00 | 0.00 | 0.00 | 67 | 1015.9 |
| 20260508065202 | 13 | 18 | 3.2 | 4.8 | 0.00 | 0.00 | 0.00 | 66 | 1015.7 |
| 20260508064659 | 13 | 54 | 4.8 | 4.8 | 0.00 | 0.00 | 0.00 | 64 | 1015.8 |
| 20260508064157 | 13 | 39 | 3.2 | 8.0 | 0.00 | 0.00 | 0.00 | 64 | 1015.8 |
| 20260508063654 | 13 | 341 | 4.8 | 6.4 | 0.00 | 0.00 | 0.00 | 63 | 1015.9 |
| 20260508063152 | 13 | 355 | 6.4 | 9.7 | 0.00 | 0.00 | 0.00 | 63 | 1015.7 |
| 20260508062649 | 13 | 9 | 0.0 | 8.0 | 0.00 | 0.00 | 0.00 | 65 | 1015.8 |
| 20260508062146 | 13 | 39 | 1.6 | 3.2 | 0.00 | 0.00 | 0.00 | 67 | 1015.7 |
| 20260508061643 | 13 | 92 | 3.2 | 8.0 | 0.00 | 0.00 | 0.00 | 63 | 1015.6 |
| 20260508061141 | 13 | 16 | 4.8 | 6.4 | 0.00 | 0.00 | 0.00 | 63 | 1015.6 |
| 20260508060638 | 13 | 82 | 0.0 | 4.8 | 0.00 | 0.00 | 0.00 | 64 | 1015.6 |
| 20260508060135 | 13 | 31 | 1.6 | 4.8 | 0.00 | 0.00 | 0.00 | 64 | 1015.7 |
| 20260508055630 | 13 | 354 | 3.2 | 4.8 | 0.00 | 0.00 | 0.00 | 62 | 1015.5 |
| 20260508055127 | 13 | 336 | 3.2 | 6.4 | 0.00 | 0.00 | 0.00 | 61 | 1015.7 |
| 20260508054624 | 13 | 43 | 3.2 | 4.8 | 0.00 | 0.00 | 0.00 | 61 | 1015.7 |
| 20260508054121 | 13 | 0 | 3.2 | 4.8 | 0.00 | 0.00 | 0.00 | 65 | 1015.5 |
| 20260508053618 | 13 | 343 | 3.2 | 4.8 | 0.00 | 0.00 | 0.00 | 61 | 1015.7 |
| 20260508053116 | 13 | 55 | 6.4 | 6.4 | 0.00 | 0.00 | 0.00 | 63 | 1015.6 |
| 20260508052613 | 13 | 23 | 1.6 | 4.8 | 0.00 | 0.00 | 0.00 | 60 | 1015.6 |
| 20260508052110 | 13 | 343 | 1.6 | 3.2 | 0.00 | 0.00 | 0.00 | 63 | 1015.5 |
| 20260508051606 | 13 | 30 | 4.8 | 6.4 | 0.00 | 0.00 | 0.00 | 61 | 1015.5 |
| 20260508051102 | 13 | 338 | 3.2 | 6.4 | 0.00 | 0.00 | 0.00 | 59 | 1015.5 |
| 20260508050558 | 13 | 4 | 6.4 | 8.0 | 0.00 | 0.00 | 0.00 | 59 | 1015.4 |
| 20260508050056 | 13 | 43 | 4.8 | 6.4 | 0.00 | 0.00 | 0.00 | 59 | 1015.4 |
| 20260508045551 | 13 | 342 | 4.8 | 6.4 | 0.00 | 0.00 | 0.00 | 63 | 1015.5 |
| 20260508045049 | 13 | 46 | 4.8 | 4.8 | 0.00 | 0.00 | 0.00 | 61 | 1015.4 |
| 20260508044546 | 13 | 142 | 8.0 | 8.0 | 0.00 | 0.00 | 0.00 | 60 | 1015.2 |
| 20260508044042 | 13 | 48 | 4.8 | 8.0 | 0.00 | 0.00 | 0.00 | 61 | 1015.0 |
| 20260508043539 | 13 | 17 | 4.8 | 6.4 | 0.00 | 0.00 | 0.00 | 61 | 1014.9 |
| 20260508043037 | 13 | 51 | 4.8 | 4.8 | 0.00 | 0.00 | 0.00 | 64 | 1015.0 |
| 20260508042533 | 13 | 9 | 1.6 | 4.8 | 0.00 | 0.00 | 0.00 | 60 | 1015.1 |
| 20260508042031 | 13 | 331 | 6.4 | 6.4 | 0.00 | 0.00 | 0.00 | 60 | 1014.8 |
| 20260508041527 | 13 | 68 | 4.8 | 4.8 | 0.00 | 0.00 | 0.00 | 61 | 1014.9 |
| 20260508041023 | 13 | 276 | 3.2 | 4.8 | 0.00 | 0.00 | 0.00 | 64 | 1014.8 |
| 20260508040520 | 13 | 51 | 4.8 | 6.4 | 0.00 | 0.00 | 0.00 | 63 | 1015.0 |
| 20260508040018 | 13 | 42 | 3.2 | 4.8 | 0.00 | 0.86 | 0.86 | 68 | 1014.9 |
| 20260508035515 | 12 | 28 | 4.8 | 9.7 | 0.00 | 0.86 | 0.86 | 64 | 1015.1 |
| 20260508035012 | 12 | 30 | 3.2 | 6.4 | 0.00 | 0.86 | 0.86 | 65 | 1014.9 |
| 20260508034509 | 12 | 339 | 3.2 | 6.4 | 0.00 | 0.86 | 0.86 | 67 | 1015.2 |
| 20260508034006 | 12 | 38 | 3.2 | 4.8 | 0.00 | 0.86 | 0.86 | 68 | 1015.1 |
| 20260508033504 | 12 | 54 | 4.8 | 6.4 | 0.00 | 0.86 | 0.86 | 70 | 1015.0 |
| 20260508033001 | 12 | 102 | 4.8 | 14.5 | 0.00 | 0.86 | 0.86 | 70 | 1015.4 |
| 20260508032458 | 12 | 111 | 3.2 | 6.4 | 0.00 | 0.86 | 0.86 | 73 | 1015.1 |
| 20260508031955 | 12 | 21 | 4.8 | 8.0 | 0.00 | 0.86 | 0.86 | 69 | 1014.9 |
| 20260508031453 | 12 | 131 | 1.6 | 3.2 | 0.00 | 0.86 | 0.86 | 70 | 1015.1 |
| 20260508030947 | 12 | 73 | 3.2 | 4.8 | 0.00 | 0.86 | 0.86 | 72 | 1015.2 |
| 20260508030445 | 12 | 63 | 3.2 | 4.8 | 0.00 | 0.86 | 0.86 | 68 | 1015.4 |
| 20260508025942 | 13 | 68 | 4.8 | 4.8 | 0.00 | 0.86 | 0.86 | 69 | 1015.2 |
| 20260508025439 | 13 | 67 | 4.8 | 6.4 | 0.00 | 0.86 | 0.86 | 64 | 1014.9 |
| 20260508024936 | 13 | 44 | 3.2 | 4.8 | 0.00 | 0.86 | 0.86 | 65 | 1015.1 |
| 20260508024432 | 13 | 77 | 3.2 | 3.2 | 0.00 | 0.86 | 0.86 | 69 | 1014.8 |
| 20260508023929 | 13 | 70 | 3.2 | 3.2 | 0.00 | 0.86 | 0.86 | 69 | 1014.7 |
| 20260508023426 | 13 | 25 | 3.2 | 4.8 | 0.00 | 0.86 | 0.86 | 67 | 1014.7 |
| 20260508022923 | 13 | 3 | 3.2 | 4.8 | 0.00 | 0.86 | 0.86 | 64 | 1014.5 |
| 20260508022418 | 13 | 343 | 4.8 | 6.4 | 0.00 | 0.86 | 0.86 | 65 | 1014.7 |
| 20260508021915 | 13 | 56 | 4.8 | 4.8 | 0.00 | 0.86 | 0.86 | 64 | 1014.7 |
| 20260508021412 | 13 | 31 | 4.8 | 6.4 | 0.00 | 0.86 | 0.86 | 65 | 1014.7 |
| 20260508020907 | 13 | 301 | 3.2 | 4.8 | 0.00 | 0.86 | 0.86 | 66 | 1014.4 |
| 20260508020406 | 13 | 43 | 3.2 | 4.8 | 0.00 | 0.86 | 0.86 | 67 | 1014.5 |
| 20260508015902 | 13 | 344 | 3.2 | 4.8 | 0.00 | 0.86 | 0.86 | 66 | 1014.3 |
| 20260508015400 | 13 | 8 | 4.8 | 4.8 | 0.00 | 0.86 | 0.86 | 68 | 1014.3 |
| 20260508014856 | 13 | 340 | 3.2 | 6.4 | 0.00 | 0.86 | 0.86 | 66 | 1014.4 |
| 20260508014354 | 13 | 47 | 4.8 | 6.4 | 0.00 | 0.86 | 0.86 | 66 | 1014.1 |
| 20260508013849 | 13 | 5 | 3.2 | 6.4 | 0.00 | 0.86 | 0.86 | 65 | 1014.3 |
| 20260508013346 | 13 | 305 | 6.4 | 6.4 | 0.00 | 0.86 | 0.86 | 63 | 1014.1 |
| 20260508012843 | 13 | 2 | 4.8 | 8.0 | 0.00 | 0.86 | 0.86 | 63 | 1014.0 |
| 20260508012340 | 13 | 337 | 6.4 | 8.0 | 0.00 | 0.86 | 0.86 | 64 | 1013.8 |
| 20260508011838 | 13 | 344 | 6.4 | 9.7 | 0.00 | 0.86 | 0.86 | 65 | 1013.7 |
| 20260508011335 | 13 | 31 | 3.2 | 6.4 | 0.00 | 0.86 | 0.86 | 66 | 1013.6 |
| 20260508010832 | 14 | 66 | 6.4 | 6.4 | 0.00 | 0.86 | 0.86 | 63 | 1013.7 |
| 20260508010330 | 14 | 133 | 6.4 | 8.0 | 0.00 | 0.86 | 0.86 | 62 | 1013.5 |
| 20260508005827 | 14 | 40 | 3.2 | 8.0 | 0.00 | 0.86 | 0.86 | 64 | 1013.3 |
| 20260508005323 | 13 | 302 | 8.0 | 12.9 | 0.00 | 0.86 | 0.86 | 63 | 1013.3 |
| 20260508004820 | 13 | 57 | 4.8 | 9.7 | 0.00 | 0.86 | 0.86 | 66 | 1013.3 |
| 20260508004316 | 13 | 64 | 4.8 | 6.4 | 0.00 | 0.86 | 0.86 | 65 | 1013.1 |
| 20260508003812 | 13 | 6 | 3.2 | 4.8 | 0.00 | 0.86 | 0.86 | 65 | 1013.2 |
| 20260508003310 | 13 | 131 | 4.8 | 11.3 | 0.00 | 0.86 | 0.86 | 64 | 1013.0 |
| 20260508002806 | 14 | 49 | 4.8 | 9.7 | 0.00 | 0.86 | 0.86 | 66 | 1012.9 |
| 20260508002306 | 14 | 60 | 3.2 | 8.0 | 0.00 | 0.86 | 0.86 | 65 | 1012.9 |
| 20260508001759 | 14 | 26 | 3.2 | 6.4 | 0.00 | 0.86 | 0.86 | 64 | 1012.9 |
| 20260508001255 | 14 | 341 | 3.2 | 8.0 | 0.00 | 0.86 | 0.86 | 67 | 1012.7 |
| 20260508000751 | 14 | 60 | 6.4 | 9.7 | 0.00 | 0.86 | 0.86 | 64 | 1012.7 |
| 20260508000250 | 14 | 70 | 3.2 | 8.0 | 0.00 | 0.86 | 0.86 | 63 | 1012.7 |
| 20260507235745 | 14 | 112 | 6.4 | 9.7 | 0.00 | 0.86 | 0.86 | 63 | 1012.7 |
| 20260507235243 | 14 | 9 | 3.2 | 4.8 | 0.00 | 0.86 | 0.86 | 67 | 1013.2 |
| 20260507234739 | 14 | 61 | 3.2 | 4.8 | 0.00 | 0.86 | 0.86 | 66 | 1013.3 |
| 20260507234236 | 14 | 278 | 3.2 | 6.4 | 0.00 | 0.86 | 0.86 | 66 | 1013.5 |
| 20260507233733 | 14 | 66 | 4.8 | 6.4 | 0.00 | 0.86 | 0.86 | 69 | 1013.3 |
| 20260507233231 | 15 | 268 | 0.0 | 6.4 | 0.00 | 0.86 | 0.86 | 66 | 1013.1 |
| 20260507232728 | 15 | 85 | 3.2 | 4.8 | 0.00 | 0.86 | 0.86 | 66 | 1013.2 |
| 20260507232225 | 15 | 49 | 3.2 | 4.8 | 0.00 | 0.86 | 0.86 | 65 | 1012.9 |
| 20260507231721 | 15 | 78 | 3.2 | 9.7 | 0.00 | 0.86 | 0.86 | 66 | 1012.9 |
| 20260507231218 | 15 | 49 | 0.0 | 8.0 | 0.00 | 0.86 | 0.86 | 66 | 1013.0 |
| 20260507230715 | 15 | 70 | 0.0 | 11.3 | 0.00 | 0.86 | 0.86 | 65 | 1013.0 |
| 20260507230213 | 15 | 40 | 3.2 | 6.4 | 0.00 | 0.86 | 0.86 | 68 | 1012.9 |
| 20260507225711 | 15 | 0 | 3.2 | 8.0 | 0.00 | 0.86 | 0.86 | 66 | 1012.7 |
| 20260507225208 | 15 | 57 | 3.2 | 8.0 | 0.00 | 0.86 | 0.86 | 65 | 1012.5 |
| 20260507224704 | 15 | 63 | 4.8 | 4.8 | 0.00 | 0.86 | 0.86 | 67 | 1012.4 |
| 20260507224200 | 15 | 67 | 1.6 | 9.7 | 0.00 | 0.86 | 0.86 | 66 | 1012.4 |
| 20260507223657 | 15 | 0 | 3.2 | 16.1 | 0.00 | 0.86 | 0.86 | 63 | 1012.6 |
| 20260507223154 | 16 | 305 | 4.8 | 17.7 | 0.00 | 0.86 | 0.86 | 63 | 1012.3 |
| 20260507222651 | 16 | 323 | 3.2 | 24.1 | 0.00 | 0.86 | 0.86 | 63 | 1012.0 |
| 20260507222147 | 16 | 314 | 11.3 | 16.1 | 0.00 | 0.86 | 0.86 | 63 | 1011.8 |
| 20260507221644 | 16 | 293 | 12.9 | 17.7 | 0.00 | 0.86 | 0.86 | 62 | 1011.6 |
| 20260507221140 | 17 | 291 | 17.7 | 22.5 | 0.00 | 0.86 | 0.86 | 61 | 1011.6 |
| 20260507220637 | 17 | 326 | 11.3 | 16.1 | 0.00 | 0.86 | 0.86 | 63 | 1011.6 |
| 20260507220135 | 17 | 340 | 4.8 | 17.7 | 0.00 | 0.86 | 0.86 | 61 | 1011.5 |
| 20260507215631 | 17 | 305 | 9.7 | 20.9 | 0.00 | 0.86 | 0.86 | 62 | 1011.3 |
| 20260507215129 | 18 | 1 | 4.8 | 11.3 | 0.00 | 0.86 | 0.86 | 61 | 1011.3 |
| 20260507214626 | 18 | 23 | 4.8 | 14.5 | 0.00 | 0.86 | 0.86 | 61 | 1011.1 |
| 20260507214122 | 18 | 345 | 6.4 | 20.9 | 0.00 | 0.86 | 0.86 | 61 | 1011.3 |
| 20260507213618 | 18 | 20 | 4.8 | 19.3 | 0.00 | 0.86 | 0.86 | 59 | 1011.0 |
| 20260507213116 | 19 | 339 | 9.7 | 12.9 | 0.00 | 0.86 | 0.86 | 58 | 1010.9 |
| 20260507212611 | 20 | 357 | 6.4 | 14.5 | 0.00 | 0.86 | 0.86 | 60 | 1010.8 |
| 20260507212108 | 20 | 357 | 4.8 | 16.1 | 0.00 | 0.86 | 0.86 | 58 | 1010.7 |
| 20260507211605 | 20 | 313 | 8.0 | 17.7 | 0.00 | 0.86 | 0.86 | 57 | 1010.7 |
| 20260507211101 | 20 | 22 | 4.8 | 8.0 | 0.00 | 0.86 | 0.86 | 60 | 1010.2 |
| 20260507210559 | 20 | 2 | 3.2 | 12.9 | 0.00 | 0.86 | 0.86 | 57 | 1010.2 |